Regional Weather Roundup
Issued by NWS

Home | Current Version | Previous Version | Graphics & Text | Print | Product List | Glossary On
Versions: 1 2 3 4 5 6 7 8 9 10 11 12 13 14 15 16 17 18 19 20 21 22 23 24 25 26 27 28 29 30 31 32 33 34 35 36 37 38 39 40 41 42 43 44 45 46 47 48 49 50
000
ASUS43 KMKX 190600
RWRWI

WISCONSIN REGIONAL WEATHER ROUNDUP
NATIONAL WEATHER SERVICE MILWAUKEE/SULLIVAN WI
100 AM CDT SAT AUG 19 2017

NOTE: "FAIR" INDICATES FEW OR NO CLOUDS BELOW 12,000 FEET WITH NO
SIGNIFICANT WEATHER AND/OR OBSTRUCTIONS TO VISIBILITY.

WIZ001-002-006>008-014>016-023>028-190700-
NORTHWEST WISCONSIN

CITY           SKY/WX    TMP DP  RH WIND       PRES   REMARKS
SUPERIOR ARPT    N/A     59  58  96 SW7       29.87R
ASHLAND        CLOUDY    64  60  87 SW10      29.86S
6HR MIN TEMP:  62; 6HR MAX TEMP:  69;

HAYWARD        CLOUDY    58  57  97 SW3       29.90F FOG
6HR MIN TEMP:  55; 6HR MAX TEMP:  68;

SIREN          CLEAR     60  59  96 CALM      29.92R FOG
CUMBERLAND     CLEAR     57  55  94 SW6       29.93S FOG
RICE LAKE      FOG       57  57  98 CALM      29.93F VSB<1/4
CHETEK         PTCLDY    60  60 100 CALM      29.92F FOG
LADYSMITH      MOCLDY    62  61  97 SW3       29.93S FOG
EAU CLAIRE     NOT AVBL
MENOMONIE      CLEAR     62  60  96 CALM      29.93R
NEW RICHMOND   CLEAR     60  60  99 CALM      29.94R FOG
OSCEOLA        CLEAR     58  58 100 CALM      29.95S
$$

WIZ003>005-009-010-017-018-190700-
NORTH CENTRAL WISCONSIN

CITY           SKY/WX    TMP DP  RH WIND       PRES   REMARKS
MANITOWISH WTR FOG       52  52 100 CALM      29.89S VSB 1/4
ARBOR VITAE    CLOUDY    59  58  96 CALM      29.90S
WOODRUFF       CLOUDY    59  58  96 CALM      29.90S
RHINELANDER    CLOUDY    57  57 100 W3        29.91S
6HR MIN TEMP:  55; 6HR MAX TEMP:  65; 6HR PCP: TRACE;

EAGLE RIVER    CLOUDY    53  53 100 CALM      29.89F
LAND O LAKES   PTCLDY    52  52 100 CALM      29.90F
PHILLIPS       CLEAR     59  59 100 CALM      29.90S
TOMAHAWK         N/A     56  55  97 CALM      29.91S
MEDFORD        FOG       62  61  99 W7        29.92S VSB 1/4
MERRILL        NOT AVBL
$$

WIZ029-030-035-036-043>047-190700-
CENTRAL WISCONSIN

CITY           SKY/WX    TMP DP  RH WIND       PRES   REMARKS
WAUSAU         CLOUDY    62  61  96 W3        29.90S FOG
6HR MIN TEMP:  62; 6HR MAX TEMP:  67;

MOSINEE        CLOUDY    61  61 100 W6        29.92F FOG
MARSHFIELD     CLOUDY    62  59  90 W7        29.91F FOG
6HR MIN TEMP:  61; 6HR MAX TEMP:  66; 6HR PCP: TRACE;

STEVENS POINT  CLOUDY    62  62 100 CALM      29.92S
WAUPACA        CLOUDY    66  65  96 W3        29.91S
WAUTOMA        CLOUDY    64  63  96 W6          N/A
6HR MIN TEMP:  64; 6HR MAX TEMP:  69;

WISC RAPIDS    CLOUDY    64  63  96 W3        29.92F
6HR MIN TEMP:  64; 6HR MAX TEMP:  66; 6HR PCP: TRACE;

CAMP DOUGLAS   CLOUDY    58  58 100 W6        29.92S
6HR MIN TEMP:  58; 6HR MAX TEMP:  66;

$$

WIZ011>013-019>022-031-037>040-048>050-190700-
NORTHEAST WISCONSIN

CITY           SKY/WX    TMP DP  RH WIND       PRES   REMARKS
ANTIGO         PTCLDY    55  55 100 CALM      29.92S FOG
SHAWANO        CLOUDY    64  60  88 W3        29.89S
OCONTO         CLOUDY    58  56  95 CALM      29.87S
STURGEON BAY   CLOUDY    62  57  83 SW3       29.88S
6HR MIN TEMP:  59; 6HR MAX TEMP:  68;

GREEN BAY      CLOUDY    62  62 100 W5        29.89S
6HR MIN TEMP:  62; 6HR MAX TEMP:  69;

MANITOWOC      NOT AVBL
APPLETON       CLOUDY    63  61  94 W7        29.89S
CLINTONVILLE   CLOUDY    63  59  88 CALM      29.90R
OSHKOSH        CLOUDY    65  62  90 W3        29.90R
6HR MIN TEMP:  65; 6HR MAX TEMP:  70;

$$

WIZ032>034-041-042-053>061-190700-
SOUTHWEST WISCONSIN

CITY           SKY/WX    TMP DP  RH WIND       PRES   REMARKS
LA CROSSE      MOCLDY    64  62  93 SE5       29.92F
6HR MIN TEMP:  63; 6HR MAX TEMP:  73;

SPARTA         FOG       54  54 100 CALM      29.94S VSB 1/2
VIROQUA        MOCLDY    60  60 100 W5        29.95S
BOSCOBEL       FOG       60  59  96 CALM      29.95R VSB 1/4
6HR MIN TEMP:  58; 6HR MAX TEMP:  71;

PRAIRIE DU CHI MOCLDY    58  56  94 CALM      29.95R
PLATTEVILLE    CLEAR     59  59 100 N3        29.95R
$$

WIZ056-057-062-063-064-067-068-190700-
SOUTH CENTRAL WISCONSIN

CITY           SKY/WX    TMP DP  RH WIND       PRES   REMARKS
REEDSBURG      CLEAR     60  60 100 CALM      29.93S
BARABOO/DELLS  CLEAR     62  59  93 CALM      29.93F
LONE ROCK      NOT AVBL
MINERAL POINT  CLEAR     61  61 100 CALM      29.95R FOG
MADISON        PTCLDY    62  60  93 CALM      29.93R
6HR MIN TEMP:  61; 6HR MAX TEMP:  71;

MIDDLETON      PTCLDY    63  63 100 NW3       29.93S
WATERTOWN      CLOUDY    64  64  99 NW3       29.92R
MONROE         CLEAR     63  59  88 NW8       29.93S
JANESVILLE     CLEAR     61  61 100 NW3       29.92R
$$

WIZ051-052-058>065-066-070>072-190700-
SOUTHEAST WISCONSIN

CITY           SKY/WX    TMP DP  RH WIND       PRES   REMARKS
MILWAUKEE      MOCLDY    69  61  75 NW8       29.90R
6HR MIN TEMP:  69; 6HR MAX TEMP:  77;

WAUKESHA       MOCLDY    61  57  88 W5        29.93R
MILWAUKEE/TIMM CLOUDY    63  55  77 W3        29.91R
RACINE         PTCLDY    64  60  87 W6        29.91S
6HR MIN TEMP:  64; 6HR MAX TEMP:  75;

KENOSHA        CLEAR     61  58  90 W5        29.91R
6HR MIN TEMP:  61; 6HR MAX TEMP:  75;

FOND DU LAC    CLOUDY    65  61  87 W6        29.91R
6HR MIN TEMP:  65; 6HR MAX TEMP:  71;

SHEBOYGAN      CLOUDY    64  62  93 NW3       29.90R
6HR MIN TEMP:  64; 6HR MAX TEMP:  71; 6HR PCP: TRACE;

WEST BEND      PTCLDY    64  61  88 W6        29.91R
JUNEAU         CLOUDY    64  61  89 CALM      29.93R
$$

LSZ147-162-190700-
LAKE SUPERIOR

STATION/POSITION TIME  TEMP    WIND        PRES    WAVE
                       AIR SEA DIR/SP/G            HT/PER
                 (UTC) (F)     (DEG/KT/KT) (MB)    (FT/S)
W MID LAKE BUOY  0450   62 60  230/ 10/ 12 1009.1F   1/ 4
DEVILS ISLAND    0500   64     250/ 16/ 19 1010.1R
SAXON HARBOR     0530   65     190/  7/ 10 1010.5R
$$

LMZ867-665-643>646-190700-
LAKE MICHIGAN

STATION/POSITION TIME  TEMP    WIND        PRES    WAVE
                       AIR SEA DIR/SP/G            HT/PER
                 (UTC) (F)     (DEG/KT/KT) (MB)    (FT/S)
S GREEN BAY BUOY 0530   68 70  260/ 10/ 12 1011.5R
N MID LAKE BUOY  0450   66 67  270/ 10/ 12 1010.8R   1/ 3
NORTHPORT PIER   0540   67     300/ 11/ 16 1010.8S
KEWAUNEE LAKESHO 0530   63     300/  2/  3 1011.0S
SHEBOYGAN LAKESH 0500   67     320/  9/ 10 1011.7R
PORT WASHINGTON  0540   68     300/  5/  8 1012.9S
ATWATER BUOY     0409   69 71  270/  8/ 10 1012.1R
MILWAUKEE LAKESH 0540   68     300/  7/  8   N/A
S MID LAKE BUOY  0450   71 71  320/ 12/ 14 1011.3R   1/ 4
KENOSHA   LAKESH 0500   68     310/  7/  9 1011.9
$$

TC  - TEMPERATURE IN CELSIUS
VSB - VISIBILITY IN STATUTE MILES
WCI - WIND CHILL INDEX
HX  - HEAT INDEX





USA.gov is the U.S. government's official web portal to all federal, state and local government web resources and services.